This is the latest recevied weather packets stored in our database for station/object G4GVZ-1. If no packets are shown the sender has not sent any weather packets the latest 1 day(s).
| Time | Temp. | Humidity | Pressure | Rain* | Wind** | Luminosity | Snow |
|---|---|---|---|---|---|---|---|
| 1777997748 | 14.44° C | 58% | 1012.3 hPa | 0 mm | 1.34 m/s, 359° | - | - |
| 1777996850 | 15° C | 57% | 1012.5 hPa | 0 mm | 1.34 m/s, 351° | - | - |
| 1777995950 | 14.44° C | 60% | 1012.4 hPa | 0 mm | 1.79 m/s, 11° | - | - |
| 1777995049 | 15° C | 58% | 1012.4 hPa | 0 mm | 1.34 m/s, 359° | - | - |
| 1777994149 | 14.44° C | 58% | 1012.5 hPa | 0 mm | 1.34 m/s, 15° | - | - |
| 1777993249 | 15° C | 57% | 1012.5 hPa | 0 mm | 1.79 m/s, 9° | - | - |
| 1777992350 | 15.56° C | 54% | 1012.6 hPa | 0 mm | 1.79 m/s, 353° | - | - |
| 1777991450 | 15° C | 55% | 1012.7 hPa | 0 mm | 2.24 m/s, 351° | - | - |
| 1777990549 | 15.56° C | 55% | 1012.7 hPa | 0 mm | 1.34 m/s, 17° | - | - |
| 1777989649 | 15° C | 57% | 1012.7 hPa | 0 mm | 1.34 m/s, 349° | - | - |
| 1777988751 | 15° C | 56% | 1012.8 hPa | 0 mm | 0.89 m/s, 2° | - | - |
| 1777987851 | 14.44° C | 57% | 1012.9 hPa | 0 mm | 1.79 m/s, 343° | - | - |
| 1777986950 | 15° C | 56% | 1012.8 hPa | 0 mm | 2.68 m/s, 345° | - | - |
| 1777986050 | 15.56° C | 53% | 1012.8 hPa | 0 mm | 1.34 m/s, 36° | - | - |
| 1777985150 | 15.56° C | 53% | 1012.8 hPa | 0 mm | 1.34 m/s, 14° | - | - |
| 1777984250 | 15° C | 55% | 1012.8 hPa | 0 mm | 1.34 m/s, 13° | - | - |
| 1777983350 | 15.56° C | 54% | 1012.9 hPa | 0 mm | 1.34 m/s, 356° | - | - |
| 1777982450 | 15° C | 55% | 1013 hPa | 0 mm | 1.34 m/s, 359° | - | - |
| 1777981549 | 14.44° C | 58% | 1013 hPa | 0 mm | 1.79 m/s, 356° | - | - |
| 1777980650 | 14.44° C | 59% | 1013.1 hPa | 0 mm | 0.45 m/s, 359° | - | - |
| 1777979750 | 14.44° C | 61% | 1013.1 hPa | 0 mm | 1.34 m/s, 347° | - | - |
| 1777978852 | 15° C | 60% | 1013.2 hPa | 0 mm | 0.89 m/s, 20° | - | - |
| 1777977951 | 14.44° C | 61% | 1013.3 hPa | 0 mm | 1.34 m/s, 15° | - | - |
| 1777977050 | 13.33° C | 65% | 1013.4 hPa | 0 mm | 0.89 m/s, 29° | - | - |
| 1777976150 | 13.33° C | 67% | 1013.6 hPa | 0 mm | 1.34 m/s, 5° | - | - |
* Rain latest hour (hover to see other rain measurements)
** Current wind speed in m/s (hover to see current wind gust speed)